This demonstration page uses our WeatherBlox Daily Observations layout. Learn more.

Left ArrowRight Arrow

39.01783, -85.05884

Hourly Observations for October 25, 2015

Temp ( °F °C ) Dew Point ( °F °C ) Humidity (%) Winds ( mph kmh ) Pressure ( in mb ) Visibility ( mi km ) Precip ( " mm )
12:23 am 00:23 Cloudy 59 15 54 12 82 82 WNW 9 15 30.09 1019 10 16 N/A
12:52 am 00:52 Cloudy 58 14.4 52 11.1 81 81 NW 12 19 30.07 1018 10 16 N/A
1:52 am 01:52 Cloudy 57 13.9 52 11.1 83 83 NW 8 13 30.08 1019 10 16 N/A
2:52 am 02:52 Cloudy 57 13.9 52 11.1 83 83 WNW 7 11 30.11 1020 10 16 N/A
3:44 am 03:44 Cloudy 55 13 52 11 88 88 NW 10 17 30.15 1021 10 16 N/A
3:52 am 03:52 Cloudy 56 13.3 51 10.6 84 84 NW 12 19 30.13 1020 10 16 N/A
4:52 am 04:52 Cloudy 55 12.8 50 10 83 83 NW 8 13 30.15 1021 10 16 N/A
5:26 am 05:26 Cloudy 55 13 48 9 77 77 NW 10 17 30.18 1022 10 16 N/A
5:52 am 05:52 Cloudy 55 12.8 49 9.4 80 80 NW 7 11 30.17 1022 10 16 N/A
6:52 am 06:52 Mostly Cloudy 54 12.2 49 9.4 83 83 NNW 8 13 30.20 1023 10 16 N/A
7:52 am 07:52 Cloudy 52 11.1 47 8.3 83 83 NNW 8 13 30.22 1023 10 16 N/A
8:52 am 08:52 Mostly Cloudy 52 11.1 47 8.3 83 83 NNW 7 11 30.24 1024 10 16 N/A
9:52 am 09:52 Mostly Cloudy 53 11.7 47 8.3 80 80 N 8 13 30.29 1026 10 16 N/A
10:52 am 10:52 Mostly Cloudy 56 13.3 46 7.8 70 70 N 9 15 30.29 1026 10 16 N/A
11:52 am 11:52 Mostly Cloudy 58 14.4 44 6.7 60 60 NNE 10 17 30.29 1026 10 16 N/A
12:52 pm 12:52 Mostly Cloudy 60 15.6 44 6.7 56 56 NNE 9 15 30.29 1026 10 16 N/A
1:52 pm 13:52 Mostly Cloudy 60 15.6 44 6.7 56 56 N 10 17 30.27 1025 10 16 N/A
2:52 pm 14:52 Mostly Cloudy 60 15.6 42 5.6 52 52 N 7 11 30.26 1025 10 16 N/A
3:52 pm 15:52 Mostly Cloudy 60 15.6 40 4.4 47 47 NNE 14 22 30.25 1025 10 16 N/A
4:52 pm 16:52 Mostly Cloudy 60 15.6 41 5 50 50 N 10 17 30.27 1025 10 16 N/A
5:52 pm 17:52 Mostly Cloudy 58 14.4 40 4.4 51 51 NNE 9 15 30.29 1026 10 16 N/A
6:52 pm 18:52 Mostly Cloudy 56 13.3 39 3.9 53 53 NNE 10 17 30.29 1026 10 16 N/A
7:52 pm 19:52 Mostly Cloudy 56 13.3 40 4.4 55 55 NE 7 11 30.31 1026 10 16 N/A
8:52 pm 20:52 Mostly Cloudy 55 12.8 40 4.4 57 57 ENE 7 11 30.32 1027 10 16 N/A
9:52 pm 21:52 Mostly Cloudy 53 11.7 40 4.4 61 61 NE 7 11 30.31 1027 10 16 N/A
10:52 pm 22:52 Cloudy 52 11.1 39 3.9 61 61 NE 9 15 30.32 1027 10 16 N/A
11:52 pm 23:52 Cloudy 51 10.6 39 3.9 64 64 ENE 8 13 30.32 1027 10 16 N/A

Powered by AerisWeather